User: anonymous   Login
Location: Unspecified
(0.0000°N, 0.0000°E)
Time: 15:13:50
(UTC+00:00)
Language:

SWISSCUBE - Orbit

View from above orbital plane
View from above orbital plane
View from above satellite
View from above satellite

Ground track
Ground track

The orbit data is extracted from the following two-line orbital elements,

1 35932U 09051B   14355.29012112  .00003509  00000-0  82609-3 0  4892
2 35932 098.3933 108.1030 0008431 160.2256 199.9269 14.54941273278091
Epoch (UTC): 21 December 2014 06:57:46
Eccentricity: 0.0008431
inclination: 98.3933°
perigee height: 703 km
apogee height: 715 km
right ascension of ascending node: 108.1030°
argument of perigee: 160.2256°
revolutions per day: 14.54941273
mean anomaly at epoch: 199.9269°
orbit number at epoch: 27809

The dashed part of the orbit path shows where the satellite is in the earth's shadow,  

DLR